Location: Medlow Airstrip Trail, Medlow Bath NSW 2780, Australia
(33.6682°S, 150.3233°E)
Time: 03:27:54
(UTC+11:00)

Explorer 11/Cluster Stage 4 - Pass Details

Date: 28 September 2019
Orbit: 467 x 1259 km, 28.8° (Epoch: 19 October)

Event Time Altitude Azimuth Distance (km) Brightness Sun altitude
Rises 10:17:59 0° 274° (W) 2,904 9.3 51.6°
Reaches altitude 10° 10:20:13 10° 281° (W) 2,101 8.7 51.9°
Maximum altitude 10:24:53 41° 351° (N) 1,115 8.5 52.5°
Drops below altitude 10° 10:30:39 10° 59° (ENE) 2,608 10.0 53.2°
Sets 10:33:42 0° 65° (ENE) 3,693 10.5 53.5°
